GPS BIII-1 (PRN 04)

Last updated on Wed Sep 17 2025 00:03:17 GMT+0000 (Coordinated Universal Time)

1 43873U 18109A 25258.80411575 .00000012 00000+0 00000+0 0 9998 2 43873 55.5132 103.0184 0035146 194.5043 175.9271 2.00573916 49570
UTC large
Height (km)
Speed (km/s)
/
Latitude / Longitude
Inclination (degrees)
Orbital Period (minutes)
Azimuth
Elevation
Range (km)
Doppler Factor

Next 0 passes for location: London (51.5072 / 0.1276)

Sorry there are no passes over London.